Location: Waco, TX
(31.5480°N, 97.1670°W)
Time: 03:37:36
(UTC-05:00)

ISS - Pass Details

Date: 23 May 2017
Orbit: 401 x 408 km, 51.6° (Epoch: 23 June)

Event Time Altitude Azimuth Distance (km) Brightness Sun altitude
Rises 05:08:45 0° 329° (NNW) 2,325 0.1 -15.3°
Reaches altitude 10° 05:11:15 10° 348° (NNW) 1,460 -0.7 -14.8°
Maximum altitude 05:13:41 19° 36° (NE) 1,033 -0.8 -14.4°
Drops below altitude 10° 05:16:06 10° 84° (E) 1,452 -0.1 -14.0°
Sets 05:18:34 0° 103° (ESE) 2,306 0.7 -13.6°
